KA8CNI Weather Reports


Display with metric or nautical units.
time (UTC)temp
F
wind
direction
speed
MPH
gust
MPH
rain 1hr
in
rain 24hr
in
rain mn
in
humidity
%
barometer
mb
20260510114554 49 321 0.0 0.0 0.00 0.00 0.00 86 1012.0
20260510113051 49 337 0.0 0.0 0.00 0.00 0.00 87 1011.8
20260510111600 49 25 0.0 0.0 0.00 0.00 0.00 87 1011.4
20260510110047 48 338 0.0 0.0 0.00 0.00 0.00 87 1011.0
20260510104604 48 360 0.0 0.0 0.00 0.00 0.00 87 1010.8
20260510103045 48 360 0.0 0.0 0.00 0.00 0.00 87 1010.5
20260510101540 48 360 0.0 0.0 0.00 0.00 0.00 87 1010.0
20260510100039 48 360 0.0 0.0 0.00 0.00 0.00 86 1009.9
20260510094540 47 360 0.0 0.0 0.00 0.00 0.00 87 1009.8
20260510093036 48 19 0.0 0.0 0.00 0.00 0.00 86 1009.8
20260510091535 47 19 0.0 0.0 0.00 0.00 0.00 86 1009.5
20260510090033 48 19 0.0 0.0 0.00 0.00 0.00 84 1009.2
20260510084530 48 19 0.0 0.0 0.00 0.00 0.00 84 1008.8
20260510083029 48 25 0.0 0.0 0.00 0.00 0.00 86 1008.5
20260510081527 48 45 0.0 0.0 0.00 0.00 0.00 86 1008.4
20260510080024 49 65 0.0 0.0 0.00 0.00 0.00 83 1008.4
20260510074521 50 65 0.0 0.0 0.00 0.00 0.00 83 1008.3
20260510073020 51 62 0.0 0.0 0.00 0.00 0.00 82 1007.9
20260510071515 51 346 0.0 0.0 0.00 0.00 0.00 82 1007.9
20260510070011 52 97 1.0 0.0 0.00 0.00 0.00 86 1007.6
20260510064508 54 333 2.0 0.0 0.00 0.00 0.00 91 1007.3
20260510063004 56 308 4.0 0.0 0.00 0.00 0.00 90 1006.9
20260510061502 57 298 7.0 0.0 0.00 0.00 0.00 89 1006.6
20260510060101 57 288 7.0 0.0 0.00 0.00 0.00 90 1006.4
20260510054600 57 281 7.0 0.0 0.00 0.00 0.00 91 1006.3
20260510053103 57 269 8.0 0.0 0.00 0.00 0.00 91 1006.2
20260510051640 57 271 7.0 0.0 0.00 0.00 0.00 91 1006.0
20260510050052 57 215 7.0 0.0 0.00 0.00 0.00 92 1005.8
20260510044549 56 250 5.0 0.0 0.00 0.00 0.00 94 1005.8
20260510043110 55 196 3.0 0.0 0.00 0.00 0.00 95 1005.4
20260510041550 55 177 2.0 0.0 0.00 0.00 0.00 96 1005.4
20260510040041 55 180 0.0 0.0 0.00 0.00 0.00 94 1005.2
20260510034544 56 180 0.0 0.0 0.00 0.00 0.46 93 1005.2
20260510033041 57 208 3.0 0.0 0.00 0.00 0.46 92 1005.2
20260510031607 57 194 6.0 0.0 0.00 0.00 0.46 90 1005.1
20260510030039 58 199 7.0 0.0 0.00 0.00 0.46 87 1004.9
20260510024538 59 245 7.0 0.0 0.00 0.00 0.44 87 1005.1
20260510023046 58 288 10.0 0.0 0.00 0.00 0.44 90 1005.1
20260510021541 57 258 6.0 0.0 0.00 0.00 0.43 93 1005.6
20260510020036 57 243 5.0 0.0 0.00 0.00 0.43 92 1005.0
20260510014535 57 223 4.0 0.0 0.00 0.00 0.43 92 1004.6
20260510013037 57 229 4.0 0.0 0.00 0.00 0.43 91 1004.3
20260510011541 58 232 5.0 0.0 0.00 0.00 0.43 90 1004.1
20260510010037 58 235 5.0 0.0 0.00 0.00 0.43 90 1004.0
20260510004534 58 235 5.0 0.0 0.00 0.00 0.43 89 1003.9
20260510003033 59 246 10.0 0.0 0.00 0.00 0.43 87 1003.7
20260510001532 58 266 12.0 0.0 0.00 0.00 0.43 89 1004.0
20260510000032 57 278 9.0 0.0 0.00 0.00 0.42 91 1004.1
20260509234535 57 269 12.0 0.0 0.00 0.00 0.41 92 1004.2
20260509233032 56 284 16.0 0.0 0.00 0.00 0.40 91 1004.3
20260509231557 60 279 19.0 0.0 0.00 0.00 0.28 81 1004.3
20260509230114 68 252 14.0 0.0 0.00 0.00 0.28 64 1002.4
20260509224521 69 212 14.0 0.0 0.00 0.00 0.28 60 1001.9
20260509223025 69 241 15.0 0.0 0.00 0.00 0.28 59 1001.7
20260509221524 70 240 18.0 0.0 0.00 0.00 0.28 56 1001.8
20260509220019 70 217 15.0 0.0 0.00 0.00 0.28 58 1001.7
20260509214517 70 214 14.0 0.0 0.00 0.00 0.28 58 1001.7
20260509213017 70 212 16.0 0.0 0.00 0.00 0.28 58 1001.6
20260509211529 70 200 15.0 0.0 0.00 0.00 0.28 60 1001.8
20260509210015 70 210 12.0 0.0 0.00 0.00 0.28 62 1002.1
20260509204510 70 242 13.0 0.0 0.00 0.00 0.28 64 1002.4
20260509203017 69 210 13.0 0.0 0.00 0.00 0.28 65 1002.5
20260509201506 69 206 14.0 0.0 0.00 0.00 0.28 65 1002.8
20260509200004 69 232 13.0 0.0 0.00 0.00 0.28 67 1003.1
20260509194501 68 197 14.0 0.0 0.00 0.00 0.28 65 1003.4
20260509193100 68 206 13.0 0.0 0.00 0.00 0.28 67 1003.3
20260509191600 67 227 14.0 0.0 0.00 0.00 0.28 68 1003.5
20260509190101 68 184 13.0 0.0 0.00 0.00 0.28 67 1003.7
20260509184552 67 215 10.0 0.0 0.00 0.00 0.28 70 1003.9
20260509183053 66 234 15.0 0.0 0.00 0.00 0.28 70 1004.0
20260509181605 66 229 15.0 0.0 0.00 0.00 0.28 71 1003.9
20260509180048 65 235 14.0 0.0 0.00 0.00 0.28 73 1003.9
20260509174551 66 232 12.0 0.0 0.00 0.00 0.28 72 1004.2
20260509173043 65 243 12.0 0.0 0.00 0.00 0.28 73 1004.1
20260509171541 64 230 11.0 0.0 0.00 0.00 0.28 75 1004.4
20260509170040 63 207 14.0 0.0 0.00 0.00 0.28 75 1004.4
20260509164538 62 238 10.0 0.0 0.00 0.00 0.28 76 1004.3
20260509163048 61 230 11.0 0.0 0.00 0.00 0.28 78 1004.2
20260509161533 61 248 12.0 0.0 0.00 0.00 0.28 79 1004.8
20260509160032 61 222 12.0 0.0 0.00 0.00 0.28 79 1004.9
20260509154530 60 231 12.0 0.0 0.00 0.00 0.28 80 1004.7
20260509153029 60 265 11.0 0.0 0.00 0.00 0.28 82 1004.9
20260509151524 59 232 10.0 0.0 0.00 0.00 0.28 85 1004.7
20260509150023 58 249 10.0 0.0 0.00 0.00 0.28 88 1004.8
20260509144522 59 247 9.0 0.0 0.00 0.00 0.28 90 1004.8
20260509143027 58 244 8.0 0.0 0.00 0.00 0.28 92 1004.6
20260509141519 57 217 8.0 0.0 0.00 0.00 0.28 95 1004.5
20260509140016 57 245 6.0 0.0 0.00 0.00 0.28 96 1004.6
20260509134513 56 245 6.0 0.0 0.00 0.00 0.28 97 1004.7
20260509133012 56 219 6.0 0.0 0.00 0.00 0.28 97 1004.8
20260509131513 55 225 5.0 0.0 0.00 0.00 0.28 98 1004.8
20260509130014 55 195 4.0 0.0 0.00 0.00 0.28 98 1004.7
20260509124507 54 198 3.0 0.0 0.00 0.00 0.28 98 1004.9
20260509123007 54 199 2.0 0.0 0.00 0.00 0.28 98 1005.1
20260509121509 54 228 4.0 0.0 0.00 0.00 0.28 98 1005.3
20260509120013 54 200 3.0 0.0 0.00 0.00 0.28 99 1005.2